User: anonymous   Login
Location: Cutler
(25.6150°N, 80.3110°W)
Time: 16:45:20
(UTC-05:00)
Language:

Tiangong 1 - Orbit

View from above orbital plane
View from above orbital plane
View from above satellite
View from above satellite

Ground track
Ground track

The orbit data is extracted from the following two-line orbital elements,

1 37820U 11053A   18023.64132389  .00084348  11282-4  15572-3 0  9998
2 37820  42.7523 272.3239 0018978 231.3942 219.8501 16.00402332363010
Epoch (UTC): 23 January 2018 15:23:30
Eccentricity: 0.0018978
inclination: 42.7523°
perigee height: 260 km
apogee height: 286 km
right ascension of ascending node: 272.3239°
argument of perigee: 231.3942°
revolutions per day: 16.00402332
mean anomaly at epoch: 219.8501°
orbit number at epoch: 36301

The dashed part of the orbit path shows where the satellite is in the earth's shadow,  

DLR